Weather History for Houston, TX

Change the Weather History Date:

Tuesday, November 20, 2012

  Actual Average (KSGR) Record (KSGR)
Temperature  
Mean Temperature 62 °F -  
Max Temperature 77 °F 71 °F 87 °F (1988)
Min Temperature 48 °F 48 °F 29 °F (1969)
Degree Days  
Heating Degree Days 2    
Growing Degree Days 12 (Base 50)    
Moisture  
Dew Point 55 °F    
Average Humidity 79    
Maximum Humidity 100    
Minimum Humidity 39    
Precipitation  
Precipitation 0.00 in - - ()
Sea Level Pressure  
Sea Level Pressure 30.20 in    
Wind  
Wind Speed 0 mph (SSE)    
Max Wind Speed 9 mph    
Max Gust Speed -    
Visibility 7 miles    
Events Fog    
Averages and records for this station are not official NWS values.
T = Trace of Precipitation, MM = Missing Value Source: NWS Daily Summary

Daily Weather History Graph

Daily Weather History Graph

Search for Another Location

Airport:

Trip Planner

Search our weather history database for the weather conditions in past years. The results will help you decide how hot, cold, wet, or windy it might be!

Date:

Astronomy

Nov. 20, 2012 Rise Set
Actual Time 6:52 AM CST 5:25 PM CST
Civil Twilight 6:27 AM CST 5:51 PM CST
Nautical Twilight 5:58 AM CST 6:20 PM CST
Astronomical Twilight 5:29 AM CST 6:48 PM CST
Moon 12:43 PM CST (11/20) No Moon Set
Length of Visible Light 11h 23m
Length of Day
10h 32m
First Quarter, 51% of the Moon is Illuminated
Nov 20
First Quarter
Nov 28
Full
Dec 6
Last Quarter
Dec 13
New
Dec 19
First Quarter

Hourly Weather History & Observations

Time (CST) Temp. Dew Point Humidity Pressure Visibility Wind Dir Wind Speed Gust Speed Precip Events Conditions
12:15 AM 53.6 °F 53.6 °F 100% 30.20 in 1.2 mi Calm Calm - N/A   Mostly Cloudy
12:35 AM 53.6 °F 53.6 °F 100% 30.20 in 0.2 mi Calm Calm - N/A Fog Fog
12:55 AM 50.0 °F 50.0 °F 100% 30.19 in 0.2 mi Calm Calm - N/A Fog Fog
1:15 AM 50.0 °F 50.0 °F 100% 30.19 in 0.2 mi Calm Calm - N/A Fog Fog
1:35 AM 50.0 °F 50.0 °F 100% 30.19 in 0.2 mi Calm Calm - N/A Fog Fog
1:55 AM 48.2 °F 48.2 °F 100% 30.19 in 0.2 mi Calm Calm - N/A Fog Fog
2:15 AM 48.2 °F 48.2 °F 100% 30.19 in 0.2 mi Calm Calm - N/A Fog Fog
2:35 AM 48.2 °F 48.2 °F 100% 30.19 in 0.2 mi Calm Calm - N/A Fog Fog
6:15 AM 48.2 °F 48.2 °F 100% 30.20 in 0.2 mi Calm Calm - N/A Fog Fog
6:35 AM 48.2 °F 48.2 °F 100% 30.20 in 0.2 mi Calm Calm - N/A Fog Fog
6:55 AM 48.2 °F 48.2 °F 100% 30.20 in 0.2 mi Calm Calm - N/A Fog Fog
7:15 AM 50.0 °F 50.0 °F 100% 30.21 in 0.2 mi Calm Calm - N/A Fog Fog
7:35 AM 50.0 °F 50.0 °F 100% 30.22 in 0.2 mi Calm Calm - N/A Fog Fog
7:55 AM 53.6 °F 53.6 °F 100% 30.23 in 1.2 mi Calm Calm - N/A   Overcast
8:15 AM 55.4 °F 55.4 °F 100% 30.23 in 1.8 mi Calm Calm - N/A   Overcast
8:35 AM 57.2 °F 57.2 °F 100% 30.24 in 2.0 mi Calm Calm - N/A   Overcast
8:55 AM 57.2 °F 57.2 °F 100% 30.25 in 2.5 mi Calm Calm - N/A   Overcast
9:15 AM 59.0 °F 59.0 °F 100% 30.25 in 3.0 mi Calm Calm - N/A   Overcast
9:35 AM 60.8 °F 60.8 °F 100% 30.25 in 4.0 mi Calm Calm - N/A   Overcast
9:55 AM 64.4 °F 64.4 °F 100% 30.25 in 5.0 mi Calm Calm - N/A   Overcast
10:15 AM 66.2 °F 64.4 °F 94% 30.26 in 6.0 mi Calm Calm - N/A   Overcast
10:35 AM 68.0 °F 62.6 °F 83% 30.25 in 8.0 mi Calm Calm - N/A   Overcast
10:55 AM 69.8 °F 60.8 °F 73% 30.25 in 10.0 mi Calm Calm - N/A   Overcast
11:15 AM 71.6 °F 60.8 °F 69% 30.24 in 9.0 mi Calm Calm - N/A   Scattered Clouds
11:35 AM 73.4 °F 55.4 °F 53% 30.23 in 7.0 mi Calm Calm - N/A   Partly Cloudy
11:55 AM 73.4 °F 50.0 °F 44% 30.22 in 4.0 mi SW 5.8 mph - N/A   Haze
12:15 PM 75.2 °F 51.8 °F 44% 30.21 in 9.0 mi Calm Calm - N/A   Partly Cloudy
12:35 PM 75.2 °F 51.8 °F 44% 30.20 in 3.0 mi WSW 3.5 mph - N/A   Haze
12:55 PM 77.0 °F 50.0 °F 39% 30.18 in 5.0 mi Calm Calm - N/A   Haze
1:15 PM 77.0 °F 53.6 °F 44% 30.18 in 10.0 mi West 3.5 mph - N/A   Clear
1:35 PM 75.2 °F 53.6 °F 47% 30.17 in 10.0 mi Calm Calm - N/A   Mostly Cloudy
1:55 PM 77.0 °F 53.6 °F 44% 30.16 in 10.0 mi Calm Calm - N/A   Scattered Clouds
2:15 PM 75.2 °F 53.6 °F 47% 30.15 in 9.0 mi Calm Calm - N/A   Clear
2:35 PM 77.0 °F 53.6 °F 44% 30.14 in 10.0 mi Calm Calm - N/A   Scattered Clouds
2:55 PM 77.0 °F 53.6 °F 44% 30.14 in 10.0 mi Calm Calm - N/A   Partly Cloudy
3:15 PM 77.0 °F 55.4 °F 47% 30.14 in 10.0 mi Calm Calm - N/A   Clear
3:35 PM 77.0 °F 55.4 °F 47% 30.14 in 10.0 mi Calm Calm - N/A   Clear
3:55 PM 77.0 °F 55.4 °F 47% 30.14 in 10.0 mi Calm Calm - N/A   Partly Cloudy
4:15 PM 77.0 °F 55.4 °F 47% 30.14 in 10.0 mi Calm Calm - N/A   Partly Cloudy
4:35 PM 77.0 °F 55.4 °F 47% 30.14 in 10.0 mi Calm Calm - N/A   Clear
4:55 PM 75.2 °F 55.4 °F 50% 30.14 in 10.0 mi Calm Calm - N/A   Clear
5:15 PM 73.4 °F 55.4 °F 53% 30.15 in 10.0 mi Calm Calm - N/A   Clear
5:35 PM 71.6 °F 55.4 °F 57% 30.16 in 10.0 mi Calm Calm - N/A   Clear
5:55 PM 69.8 °F 55.4 °F 60% 30.16 in 10.0 mi Calm Calm - N/A   Clear
6:15 PM 66.2 °F 55.4 °F 68% 30.17 in 10.0 mi Calm Calm - N/A   Partly Cloudy
6:35 PM 64.4 °F 55.4 °F 73% 30.17 in 10.0 mi Calm Calm - N/A   Partly Cloudy
6:55 PM 64.4 °F 55.4 °F 73% 30.18 in 10.0 mi Calm Calm - N/A   Clear
7:15 PM 60.8 °F 55.4 °F 82% 30.18 in 10.0 mi Calm Calm - N/A   Partly Cloudy
7:35 PM 60.8 °F 55.4 °F 82% 30.19 in 10.0 mi Calm Calm - N/A   Scattered Clouds
7:55 PM 60.8 °F 55.4 °F 82% 30.19 in 10.0 mi ENE 4.6 mph - N/A   Scattered Clouds
8:15 PM 60.8 °F 55.4 °F 82% 30.20 in 10.0 mi SE 9.2 mph - N/A   Scattered Clouds
8:35 PM 60.8 °F 57.2 °F 88% 30.20 in 10.0 mi SE 6.9 mph - N/A   Partly Cloudy
8:55 PM 60.8 °F 59.0 °F 94% 30.20 in 10.0 mi SSE 6.9 mph - N/A   Clear
9:15 PM 59.0 °F 59.0 °F 100% 30.21 in 10.0 mi SE 4.6 mph - N/A   Clear
9:35 PM 59.0 °F 59.0 °F 100% 30.21 in 10.0 mi Calm Calm - N/A   Clear
9:55 PM 57.2 °F 57.2 °F 100% 30.21 in 10.0 mi Calm Calm - N/A   Partly Cloudy
10:15 PM 57.2 °F 57.2 °F 100% 30.21 in 10.0 mi Calm Calm - N/A   Partly Cloudy
10:35 PM 57.2 °F 57.2 °F 100% 30.21 in 10.0 mi SSE 5.8 mph - N/A   Scattered Clouds
10:55 PM 57.2 °F 57.2 °F 100% 30.21 in 9.0 mi Calm Calm - N/A   Scattered Clouds
11:15 PM 55.4 °F 55.4 °F 100% 30.21 in 9.0 mi Calm Calm - N/A   Scattered Clouds
11:35 PM 55.4 °F 55.4 °F 100% 30.21 in 9.0 mi Calm Calm - N/A   Scattered Clouds
11:55 PM 55.4 °F 55.4 °F 100% 30.21 in 8.0 mi Calm Calm - N/A   Scattered Clouds